When you browse on this site, cookies collect data to enhance your experience and personalize the content and advertising you see.
Visit our Privacy Policy to learn more. By continuing to use the site, you agree to this use of cookies and data.
  • In Spain
  • List of Countries
  • For 7 days
  • Water Temperature
  • Satellite Maps
  • Weather Map
  • Weather Widgets
  • user-avatar
    Login

    Hourly Weather Jeddah

    Today, 21 May, Tuesday

    Time Temperature Precipitation Wind Pressure Humidity
    00:00 +35°C° 0.1 mm 1 mps 756 mmHg 45%
    01:00 +35°C° 0 mm 1 mps 756 mmHg 46%
    02:00 +34°C° 0 mm 1 mps 755 mmHg 48%
    03:00 +34°C° 0 mm 2 mps 755 mmHg 55%
    04:00 +34°C° 0 mm 2 mps 755 mmHg 56%
    05:00 +34°C° 0 mm 2 mps 755 mmHg 57%
    06:00 +34°C° 0 mm 2 mps 756 mmHg 59%
    07:00 +34°C° 0 mm 2 mps 756 mmHg 55%
    08:00 +34°C° 0 mm 1 mps 756 mmHg 52%
    09:00 +33°C° 0 mm 0 mps 756 mmHg 50%
    10:00 +36°C° 0 mm 1 mps 756 mmHg 44%
    11:00 +38°C° 0 mm 2 mps 756 mmHg 39%
    12:00 +39°C° 0 mm 3 mps 756 mmHg 33%
    13:00 +41°C° 0 mm 4 mps 756 mmHg 34%
    14:00 +41°C° 0 mm 5 mps 756 mmHg 34%
    15:00 +41°C° 0 mm 6 mps 755 mmHg 37%
    16:00 +40°C° 0 mm 6 mps 755 mmHg 39%
    17:00 +39°C° 0 mm 6 mps 755 mmHg 41%
    18:00 +38°C° 0 mm 7 mps 755 mmHg 43%
    19:00 +38°C° 0 mm 6 mps 755 mmHg 43%
    20:00 +36°C° 0 mm 4 mps 756 mmHg 44%
    21:00 +36°C° 0 mm 3 mps 756 mmHg 44%
    22:00 +36°C° 0 mm 3 mps 756 mmHg 44%
    23:00 +35°C° 0 mm 3 mps 756 mmHg 43%

    Tomorrow, 22 May, Wednesday

    Time Temperature Precipitation Wind Pressure Humidity
    00:00 +35°C° 0 mm 2 mps 756 mmHg 42%
    01:00 +35°C° 0 mm 3 mps 756 mmHg 44%
    02:00 +35°C° 0 mm 3 mps 756 mmHg 45%
    03:00 +34°C° 0 mm 3 mps 756 mmHg 47%
    04:00 +34°C° 0 mm 3 mps 756 mmHg 47%
    05:00 +34°C° 0 mm 3 mps 756 mmHg 47%
    06:00 +34°C° 0 mm 3 mps 756 mmHg 47%
    07:00 +35°C° 0 mm 3 mps 756 mmHg 42%
    08:00 +36°C° 0 mm 3 mps 756 mmHg 37%
    09:00 +37°C° 0 mm 4 mps 757 mmHg 31%
    10:00 +40°C° 0 mm 4 mps 756 mmHg 28%
    11:00 +41°C° 0 mm 5 mps 756 mmHg 24%
    12:00 +42°C° 0 mm 6 mps 756 mmHg 21%
    13:00 +43°C° 0 mm 7 mps 756 mmHg 22%
    14:00 +43°C° 0 mm 8 mps 755 mmHg 22%
    15:00 +41°C° 0 mm 8 mps 755 mmHg 23%
    16:00 +41°C° 0 mm 7 mps 755 mmHg 25%
    17:00 +40°C° 0 mm 6 mps 754 mmHg 27%
    18:00 +39°C° 0 mm 5 mps 754 mmHg 28%
    19:00 +37°C° 0 mm 5 mps 754 mmHg 30%
    20:00 +37°C° 0 mm 4 mps 755 mmHg 32%
    21:00 +36°C° 0 mm 4 mps 755 mmHg 34%
    22:00 +36°C° 0 mm 3 mps 755 mmHg 34%
    23:00 +36°C° 0 mm 3 mps 755 mmHg 34%

    Day after tomorrow, 23 May, Thursday

    Time Temperature Precipitation Wind Pressure Humidity
    00:00 +36°C° 0 mm 2 mps 755 mmHg 34%
    01:00 +35°C° 0 mm 2 mps 755 mmHg 35%
    02:00 +35°C° 0 mm 2 mps 755 mmHg 37%
    03:00 +35°C° 0 mm 2 mps 755 mmHg 38%
    04:00 +35°C° 0 mm 2 mps 755 mmHg 37%
    05:00 +34°C° 0 mm 2 mps 755 mmHg 37%
    06:00 +34°C° 0 mm 2 mps 755 mmHg 37%
    07:00 +36°C° 0 mm 2 mps 755 mmHg 33%
    08:00 +37°C° 0 mm 2 mps 755 mmHg 30%
    09:00 +38°C° 0 mm 2 mps 755 mmHg 26%
    10:00 +39°C° 0 mm 3 mps 755 mmHg 25%
    11:00 +40°C° 0 mm 3 mps 755 mmHg 23%
    12:00 +42°C° 0 mm 4 mps 755 mmHg 22%
    13:00 +42°C° 0 mm 5 mps 755 mmHg 24%
    14:00 +42°C° 0 mm 6 mps 754 mmHg 25%
    15:00 +41°C° 0 mm 6 mps 754 mmHg 27%
    16:00 +41°C° 0 mm 5 mps 754 mmHg 28%
    17:00 +40°C° 0 mm 4 mps 753 mmHg 29%
    18:00 +38°C° 0 mm 3 mps 753 mmHg 30%
    19:00 +38°C° 0 mm 2 mps 754 mmHg 30%
    20:00 +38°C° 0 mm 2 mps 754 mmHg 30%
    21:00 +36°C° 0 mm 1 mps 755 mmHg 31%
    22:00 +37°C° 0 mm 2 mps 755 mmHg 31%
    23:00 +37°C° 0 mm 2 mps 755 mmHg 31%

    24 May, Friday

    Time Temperature Precipitation Wind Pressure Humidity
    00:00 +37°C° 0 mm 3 mps 756 mmHg 31%
    01:00 +36°C° 0 mm 3 mps 755 mmHg 33%
    02:00 +36°C° 0 mm 2 mps 755 mmHg 36%
    03:00 +34°C° 0 mm 1 mps 755 mmHg 38%
    04:00 +34°C° 0 mm 1 mps 755 mmHg 38%
    05:00 +34°C° 0 mm 1 mps 755 mmHg 38%
    06:00 +32°C° 0 mm 0 mps 755 mmHg 38%
    07:00 +33°C° 0 mm 0 mps 755 mmHg 35%
    08:00 +34°C° 0 mm 0 mps 756 mmHg 32%
    09:00 +35°C° 0 mm 0 mps 756 mmHg 30%
    10:00 +39°C° 0 mm 1 mps 756 mmHg 28%
    11:00 +40°C° 0 mm 2 mps 756 mmHg 26%
    12:00 +42°C° 0 mm 3 mps 756 mmHg 24%
    13:00 +42°C° 0 mm 4 mps 755 mmHg 26%
    14:00 +42°C° 0 mm 6 mps 755 mmHg 27%
    15:00 +43°C° 0 mm 7 mps 754 mmHg 29%
    16:00 +41°C° 0 mm 6 mps 754 mmHg 32%
    17:00 +40°C° 0 mm 5 mps 754 mmHg 35%
    18:00 +40°C° 0 mm 4 mps 754 mmHg 38%
    19:00 +38°C° 0 mm 3 mps 755 mmHg 39%
    20:00 +37°C° 0 mm 3 mps 755 mmHg 41%
    21:00 +37°C° 0 mm 2 mps 756 mmHg 42%
    22:00 +37°C° 0 mm 2 mps 756 mmHg 42%
    23:00 +37°C° 0 mm 2 mps 756 mmHg 42%

    25 May, Saturday

    Time Temperature Precipitation Wind Pressure Humidity
    00:00 +37°C° 0 mm 2 mps 756 mmHg 41%
    01:00 +37°C° 0 mm 2 mps 755 mmHg 43%
    02:00 +36°C° 0 mm 2 mps 755 mmHg 44%
    03:00 +36°C° 0 mm 2 mps 755 mmHg 45%
    04:00 +36°C° 0 mm 2 mps 755 mmHg 46%
    05:00 +35°C° 0 mm 2 mps 755 mmHg 47%
    06:00 +35°C° 0 mm 2 mps 755 mmHg 48%
    07:00 +35°C° 0 mm 1 mps 756 mmHg 45%
    08:00 +36°C° 0 mm 1 mps 756 mmHg 42%
    09:00 +35°C° 0 mm 0 mps 756 mmHg 39%
    10:00 +39°C° 0 mm 1 mps 756 mmHg 35%
    11:00 +41°C° 0 mm 2 mps 756 mmHg 32%
    12:00 +43°C° 0 mm 3 mps 756 mmHg 28%
    13:00 +43°C° 0 mm 4 mps 755 mmHg 30%
    14:00 +42°C° 0 mm 6 mps 754 mmHg 32%
    15:00 +43°C° 0 mm 7 mps 754 mmHg 33%
    16:00 +41°C° 0.1 mm 6 mps 754 mmHg 35%
    17:00 +40°C° 0.1 mm 5 mps 754 mmHg 36%
    18:00 +40°C° 0.1 mm 4 mps 754 mmHg 37%
    19:00 +40°C° 0.1 mm 4 mps 754 mmHg 34%
    20:00 +40°C° 0.1 mm 4 mps 755 mmHg 31%
    21:00 +40°C° 0.1 mm 4 mps 755 mmHg 28%
    22:00 +39°C° 0 mm 3 mps 755 mmHg 28%
    23:00 +39°C° 0 mm 2 mps 755 mmHg 28%

    26 May, Sunday

    Time Temperature Precipitation Wind Pressure Humidity
    00:00 +39°C° 0 mm 1 mps 755 mmHg 28%
    01:00 +38°C° 0 mm 2 mps 754 mmHg 34%
    02:00 +37°C° 0 mm 3 mps 754 mmHg 41%
    03:00 +36°C° 0 mm 4 mps 753 mmHg 48%
    04:00 +35°C° 0 mm 4 mps 754 mmHg 49%
    05:00 +35°C° 0 mm 4 mps 754 mmHg 51%
    06:00 +35°C° 0 mm 4 mps 754 mmHg 52%
    07:00 +36°C° 0 mm 3 mps 754 mmHg 49%
    08:00 +36°C° 0 mm 3 mps 754 mmHg 46%
    09:00 +37°C° 0 mm 2 mps 755 mmHg 43%
    10:00 +37°C° 0 mm 2 mps 755 mmHg 41%
    11:00 +38°C° 0 mm 2 mps 754 mmHg 40%
    12:00 +38°C° 0 mm 2 mps 754 mmHg 39%
    13:00 +38°C° 0 mm 3 mps 754 mmHg 38%
    14:00 +40°C° 0 mm 4 mps 753 mmHg 37%
    15:00 +40°C° 0 mm 4 mps 753 mmHg 35%
    16:00 +40°C° 0 mm 4 mps 753 mmHg 37%
    17:00 +38°C° 0 mm 4 mps 753 mmHg 38%
    18:00 +38°C° 0 mm 4 mps 752 mmHg 40%
    19:00 +37°C° 0 mm 4 mps 753 mmHg 41%
    20:00 +37°C° 0 mm 3 mps 753 mmHg 42%
    21:00 +36°C° 0 mm 3 mps 754 mmHg 43%
    22:00 +36°C° 0 mm 2 mps 754 mmHg 45%
    23:00 +36°C° 0 mm 2 mps 754 mmHg 46%
    Show more